sat.trackr.live / text

‹ back to catalog

STARLINK-3743

NORAD 52118 · 2022-029AG

PAYLOAD ACTIVE UNKNOWN

§ Identity

Operator
Country
US
Launch date
2022-03-19
Launch site
AFETR
Launch vehicle
Mass (kg)
RCS (m²)

Purposes: comms

External: N2YO · Heavens-Above · Gunter

§ Orbital elements

Epoch: 2026-09-19T12:33:22.053888Z

Period
93.85 min
Inclination
53.1610°
Eccentricity
0.0001281
Mean motion
15.34385157 rev/d
Perigee alt
461.9 km
Apogee alt
463.6 km
Semi-major
6,840.9 km
B*
-9.0072e-6
RAAN
273.9488°
Arg perigee
89.6529°
Mean anomaly
270.4621°
Rev number
25,025

§ Raw data

STARLINK-37431 52118U 22029AG  26262.52317192 -.00000680  00000+0 -90072-5 0  99982 52118  53.1610 273.9488 0001281  89.6529 270.4621 15.34385157250255

JSON: /api/v1/satellites/52118 · /tle

For live sub-satellite position, see the globe view (requires WebGL).

§ Visibility from observer

Set your observer location to see the next 7 days of passes ≥ 10°. The values pass through the URL so the page stays shareable.

No JS? Fill the form by hand. The geolocation button needs JavaScript.